Date String (YYYY-MM-DD hh:mm:ss) UTC,Instrument flags,absolute air pressure of the measurement (hPa),sample flow rate (lpm),inlet stack bypass flow (lpm),air temperature of the measurement (°C),ambient temperature measured by the external sensor (°C),aerosol sample conditioner tube jacket temperature (°C),OPC LED temperature (°C),internal box temperature (°C),relative humidity of the measurement (%),span deviation,mass concentration of particles derived from Lorenz-Mie calculation of OPC scattering (μg/m³),mass concentration of particles derived from Lorenz-Mie calculation of OPC scattering (μg/m³),mass concentration of particles derived from Lorenz-Mie calculation of OPC scattering (μg/m³)
DateTimeUTC,F1_M11,P_M11,Q1_M11,Q2_M11,T1_M11,T2_M11,T3_M11,T4_M11,T5_M11,U1_M11,ZSPAN_M11,X2_M11,X0_M11,X1_M11
2023-06-15 17:00:00,SystemResetWarning,0826.4,5.00,000.00,030.2,028.7,000.0,038.7,031.7,26.7,0000.0,0002.77,0004.75,0002.07
2023-06-15 17:01:00,SystemResetWarning,0826.4,5.00,000.00,030.2,028.7,000.0,038.7,031.8,26.8,0000.0,0002.76,0004.62,0002.09
2023-06-15 17:02:00,SystemResetWarning,0826.4,5.01,000.00,030.2,028.8,000.0,038.7,031.8,26.7,0000.0,0002.77,0004.68,0002.12
2023-06-15 17:03:00,SystemResetWarning,0826.4,5.00,000.00,030.3,028.9,000.0,038.7,031.9,27.0,0000.0,0002.81,0004.64,0002.15
2023-06-15 17:04:00,SystemResetWarning,0826.4,5.00,000.00,030.3,028.9,000.0,038.8,031.9,27.5,0000.0,0002.87,0004.69,0002.17
2023-06-15 17:05:00,SystemResetWarning,0826.4,5.00,000.00,030.3,028.9,000.0,038.8,031.9,26.5,0000.0,0002.93,0004.96,0002.19
2023-06-15 17:06:00,SystemResetWarning,0826.4,4.99,000.00,030.3,027.5,000.0,038.7,031.9,25.9,0000.0,0002.94,0005.06,0002.19
2023-06-15 17:07:00,SystemResetWarning,0826.3,5.01,000.00,030.3,025.4,000.0,038.7,031.6,26.7,0000.0,0002.95,0005.25,0002.19
2023-06-15 17:08:00,SystemResetWarning,0826.3,5.00,000.00,030.2,024.9,000.0,038.6,031.5,25.9,0000.0,0002.92,0005.93,0002.16
2023-06-15 17:09:00,SystemResetWarning,0826.3,5.01,000.00,030.1,025.2,000.0,038.6,031.3,25.1,0000.0,0002.89,0006.15,0002.14
2023-06-15 17:10:00,SystemResetWarning,0826.3,5.01,000.00,030.0,025.7,000.0,038.6,031.2,24.3,0000.0,0002.86,0006.13,0002.11
2023-06-15 17:11:00,SystemResetWarning,0826.3,4.99,000.00,030.0,026.1,000.0,038.6,031.3,25.0,0000.0,0002.87,0006.27,0002.10
2023-06-15 17:12:00,SystemResetWarning,0826.3,5.00,000.00,030.0,026.6,000.0,038.6,031.3,25.8,0000.0,0002.85,0006.28,0002.09
2023-06-15 17:13:00,SystemResetWarning,0826.2,5.00,000.00,029.9,027.0,000.0,038.6,031.3,25.5,0000.0,0002.81,0006.17,0002.06
2023-06-15 17:14:00,SystemResetWarning,0826.3,4.98,000.00,029.9,027.3,000.0,038.6,031.4,25.6,0000.0,0002.77,0006.19,0002.03
2023-06-15 17:15:00,SystemResetWarning,0826.3,4.99,000.00,030.0,027.6,000.0,038.6,031.4,25.1,0000.0,0002.72,0006.07,0002.01
2023-06-15 17:16:00,SystemResetWarning,0826.2,4.99,000.00,030.0,027.8,000.0,038.6,031.4,24.7,0000.0,0002.61,0005.73,0001.98
2023-06-15 17:17:00,SystemResetWarning,0826.2,5.01,000.00,030.0,028.0,000.0,038.6,031.5,24.7,0000.0,0002.58,0005.77,0001.95
2023-06-15 17:18:00,SystemResetWarning,0826.2,5.00,000.00,030.0,028.2,000.0,038.6,031.5,24.5,0000.0,0002.53,0005.60,0001.91
2023-06-15 17:19:00,SystemResetWarning,0826.3,4.99,000.00,030.0,028.3,000.0,038.6,031.6,25.1,0000.0,0002.39,0004.40,0001.88
2023-06-15 17:20:00,SystemResetWarning,0826.2,4.98,000.00,030.0,028.4,000.0,038.6,031.6,25.1,0000.0,0002.36,0004.02,0001.87
2023-06-15 17:21:00,SystemResetWarning,0826.3,5.00,000.00,030.1,028.5,000.0,038.6,031.6,24.6,0000.0,0002.38,0004.01,0001.88
2023-06-15 17:22:00,SystemResetWarning,0826.3,5.01,000.00,030.1,028.6,000.0,038.6,031.7,25.1,0000.0,0002.41,0004.87,0001.89
2023-06-15 17:23:00,SystemResetWarning,0826.3,4.99,000.00,030.1,028.7,000.0,038.6,031.7,24.5,0000.0,0002.44,0005.71,0001.86
2023-06-15 17:24:00,SystemResetWarning,0826.4,4.99,000.00,030.2,028.7,000.0,038.6,031.8,24.6,0000.0,0002.44,0005.85,0001.85
2023-06-15 17:25:00,SystemResetWarning,0826.4,5.00,000.00,030.2,028.8,000.0,038.7,031.8,24.6,0000.0,0002.39,0005.72,0001.85
2023-06-15 17:26:00,SystemResetWarning,0826.4,4.99,000.00,030.2,028.0,000.0,038.6,031.8,24.3,0000.0,0002.36,0005.67,0001.83
2023-06-15 17:27:00,SystemResetWarning,0826.3,5.00,000.00,030.2,026.1,000.0,038.6,031.8,24.4,0000.0,0002.36,0005.78,0001.84
2023-06-15 17:28:00,SystemResetWarning,0826.3,5.02,000.00,030.2,025.9,000.0,038.6,031.7,25.0,0000.0,0002.37,0005.73,0001.85
2023-06-15 17:29:00,SystemResetWarning,0826.3,5.01,000.00,030.1,026.2,000.0,038.6,031.5,25.1,0000.0,0002.38,0005.64,0001.86
2023-06-15 17:30:00,SystemResetWarning,0826.3,4.98,000.00,030.0,026.5,000.0,038.6,031.4,25.8,0000.0,0002.44,0005.77,0001.88
2023-06-15 17:31:00,SystemResetWarning,0826.3,5.02,000.00,030.0,026.9,000.0,038.6,031.4,26.2,0000.0,0002.45,0006.93,0001.89
2023-06-15 17:32:00,SystemResetWarning,0826.3,5.00,000.00,030.0,027.3,000.0,038.6,031.5,26.6,0000.0,0002.46,0007.39,0001.87
2023-06-15 17:33:00,SystemResetWarning,0826.3,4.99,000.00,030.0,027.6,000.0,038.6,031.5,26.1,0000.0,0002.44,0007.01,0001.85
2023-06-15 17:34:00,SystemResetWarning,0826.4,4.99,000.00,030.0,027.8,000.0,038.6,031.5,25.3,0000.0,0002.38,0006.90,0001.85
2023-06-15 17:35:00,SystemResetWarning,0826.4,5.00,000.00,030.1,028.1,000.0,038.6,031.6,26.2,0000.0,0002.40,0007.12,0001.85
2023-06-15 17:36:00,SystemResetWarning,0826.4,5.00,000.00,030.1,028.2,000.0,038.6,031.6,26.5,0000.0,0002.48,0007.65,0001.85
2023-06-15 17:37:00,SystemResetWarning,0826.4,5.00,000.00,030.1,028.4,000.0,038.6,031.7,27.4,0000.0,0002.51,0007.68,0001.86
2023-06-15 17:38:00,SystemResetWarning,0826.4,5.00,000.00,030.1,028.5,000.0,038.6,031.7,26.7,0000.0,0002.58,0007.84,0001.86
2023-06-15 17:39:00,SystemResetWarning,0826.3,5.01,000.00,030.2,028.6,000.0,038.6,031.7,26.0,0000.0,0002.61,0007.90,0001.87
2023-06-15 17:40:00,SystemResetWarning,0826.4,4.98,000.00,030.2,027.6,000.0,038.6,031.8,24.8,0000.0,0002.56,0007.83,0001.85
2023-06-15 17:41:00,SystemResetWarning,0826.4,5.00,000.00,030.2,025.4,000.0,038.6,031.6,23.9,0000.0,0002.58,0007.88,0001.86
2023-06-15 17:42:00,SystemResetWarning,0826.4,5.01,000.00,030.1,024.8,000.0,038.5,031.5,25.1,0000.0,0002.62,0007.38,0001.87
2023-06-15 17:43:00,SystemResetWarning,0826.4,5.02,000.00,030.0,025.1,000.0,038.5,031.3,23.6,0000.0,0002.57,0006.73,0001.87
2023-06-15 17:44:00,SystemResetWarning,0826.3,4.99,000.00,029.9,025.5,000.0,038.5,031.1,24.2,0000.0,0002.54,0006.65,0001.88
2023-06-15 17:45:00,SystemResetWarning,0826.3,5.00,000.00,029.9,026.1,000.0,038.5,031.2,25.4,0000.0,0002.62,0005.81,0001.90
2023-06-15 17:46:00,SystemResetWarning,0826.3,5.00,000.00,029.8,026.5,000.0,038.5,031.2,25.7,0000.0,0002.69,0006.46,0001.91
2023-06-15 17:47:00,SystemResetWarning,0826.4,4.99,000.00,029.8,026.9,000.0,038.4,031.2,26.0,0000.0,0002.64,0005.82,0001.91
2023-06-15 17:48:00,SystemResetWarning,0826.4,5.02,000.00,029.8,027.3,000.0,038.4,031.3,25.4,0000.0,0002.65,0005.95,0001.91
2023-06-15 17:49:00,SystemResetWarning,0826.3,5.01,000.00,029.8,027.5,000.0,038.4,031.3,24.9,0000.0,0002.63,0005.74,0001.90
2023-06-15 17:50:00,SystemResetWarning,0826.4,4.99,000.00,029.9,027.8,000.0,038.4,031.4,24.5,0000.0,0002.58,0006.09,0001.88
2023-06-15 17:51:00,SystemResetWarning,0826.3,4.99,000.00,029.9,028.0,000.0,038.4,031.4,25.9,0000.0,0002.62,0006.31,0001.88
2023-06-15 17:52:00,SystemResetWarning,0826.4,5.00,000.00,029.9,028.1,000.0,038.4,031.5,26.5,0000.0,0002.62,0006.84,0001.88
2023-06-15 17:53:00,SystemResetWarning,0826.3,5.01,000.00,029.9,028.3,000.0,038.5,031.5,25.9,0000.0,0002.58,0007.18,0001.89
2023-06-15 17:54:00,SystemResetWarning,0826.3,5.00,000.00,030.0,028.4,000.0,038.5,031.5,25.9,0000.0,0002.66,0007.25,0001.91
2023-06-15 17:55:00,SystemResetWarning,0826.3,5.00,000.00,030.0,028.5,000.0,038.5,031.6,26.3,0000.0,0002.72,0007.29,0001.92
2023-06-15 17:56:00,SystemResetWarning,0826.2,5.00,000.00,030.0,028.6,000.0,038.5,031.7,25.6,0000.0,0002.65,0007.04,0001.91
2023-06-15 17:57:00,SystemResetWarning,0826.2,5.00,000.00,030.1,028.5,000.0,038.5,031.7,25.9,0000.0,0002.55,0006.72,0001.88
2023-06-15 17:58:00,SystemResetWarning,0826.2,4.99,000.00,030.1,026.8,000.0,038.5,031.5,26.7,0000.0,0002.57,0006.80,0001.90
2023-06-15 17:59:00,SystemResetWarning,0826.2,5.00,000.00,030.0,025.0,000.0,038.4,031.3,26.3,0000.0,0002.52,0006.74,0001.92
